リニア彗星

237P/LINEAR (2023)

English version
Home page
Updated on November 14, 2023

---------------------------------------------------------------------

・ プロフィール

・ 写真集

・ 軌道要素

Epoch 2023 Sept. 13.0 TT = JDT 2460200.5
T 2023 May 14.69010 TT                                  Rudenko
q   1.9870777            (2000.0)            P               Q
n   0.14986540     Peri.   25.26633     -0.00062501     +0.97546602
a   3.5102264      Node   245.35971     -0.95368781     -0.06680179
e   0.4339175      Incl.   14.01662     -0.30079757     +0.20977024
P   6.58
>From 2046 observations 2002 June 18-2023 Sept. 27, mean residual 0".7.

・ 星図

・ 光度変化

        H = 15.0  G = 0.15                       [    ,-360]  (              〜2022年 5月19日)
        m1 = 3.0 + 5 logΔ + 30.0 log r(t - 20)  [-360, 390]  (2022年 5月19日〜2024年 6月 7日)
        H = 15.0  G = 0.15                       [ 390,    ]  (2024年 6月 7日〜              )

---------------------------------------------------------------------

軌道要素はM.P.E.C. 2023-S260に掲載されたものです。
星図はステラナビゲータ Ver.10 (アストロアーツ) で作成したものです。
光度グラフはComet for Windowsで作成したものです。

---------------------------------------------------------------------

Copyright(C) Seiichi Yoshida (comet@aerith.net). All rights reserved.